Location: Arcizac
(43.0933°N, 0.0112°E)
Time: 19:08:27
(UTC+00:00)

USA 229 - Pass Details

Date: 14 December 2019
Orbit: 994 x 1218 km, 63.4° (Epoch: 20 January)

Event Time Altitude Azimuth Distance (km) Brightness Sun altitude
Rises 18:40:12 0° 324° (NW) 3,949 7.0 -23.7°
Reaches altitude 10° 18:42:51 10° 327° (NNW) 3,019 6.3 -24.2°
Maximum altitude 18:50:06 71° 51° (NE) 1,238 3.7 -25.5°
Enters shadow 18:52:37 45° 120° (ESE) 1,577 4.2 -25.9°
